Weather in Vasiĺieŭka

Belarus     52°14′45″N   31°30′33″E
temp.,
°C
wind,
m/s
gust,
m/s
humid.,
%
clouds,
%
prec.,
mm/h
press.,
hPa
HPBL,
m
7 may, fri
fri700:00+6wsw33705 0.0 101231
03:00+4sw227325 0.0 101321
06:00+4ssw347534 0.0 101262
09:00+10ssw575940 0.0 1012486
12:00+14ssw7949100 0.0 10111800
15:00+13s6961100 0.1 10101732
18:00+12s81371100 0.3 10081293
21:00+10s61392100 3.4 1007628
8 may, sat
sat800:00+9s41097100 0.3 1006301
03:00+9sw3798100 1.1 1005262
06:00+8w2298100 0.8 1004101
09:00+10wnw348989 1.1 1005495
12:00+7w6995100 2.1 1006519
15:00+6wnw6894100 7.2 10081093
18:00+5nw61294100 6.9 10101044
21:00+6nw6128599 7.5 1013716
9 may, sun
sun900:00+3wnw411905 0.0 1015248
03:00+2wnw614860 0.0 1017367
06:00+2wnw512912 0.0 1020325
09:00+7nw69680 0.0 1022813
12:00+11nw68505 0.0 10231653
15:00+12nw57455 0.0 10231959
18:00+12nw35535 0.0 10241737
21:00+7nw226319 0.0 102610
10 may, mon
mon1000:00+5ese11685 0.0 102710
03:00+4sw11685 0.0 102810
06:00+4s11701 0.0 102910
09:00+11se22570 0.0 1030320
12:00+15e11453 0.0 10291244
15:00+16ne23400 0.0 10281660
18:00+15ne34545 0.0 1027728
21:00+10ene33670 0.0 102823
11 may, tue
tue1100:00+7ene33740 0.0 102834
03:00+6ene34790 0.0 102860
06:00+5ne38800 0.0 1028133
09:00+12ne58600 0.0 1026467
12:00+17ene56530 0.0 1025825
15:00+19ene56570 0.0 10241075
18:00+19ene57680 0.0 10231050
21:00+14ese4119110 0.0 1023319